Weather History for KNUQ - July, 2012

Change the Weather History Date:

Sunday, July 15, 2012

  Actual Average Record
Temperature  
Mean Temperature 66 °F 68 °F  
Max Temperature 75 °F 77 °F 89 °F (1984)
Min Temperature 56 °F 59 °F 52 °F (1946)
Degree Days  
Heating Degree Days 0    
Month to date heating degree days 9  
Since 1 June heating degree days 50  
Since 1 July heating degree days 9  
Cooling Degree Days 1    
Month to date cooling degree days 25  
Year to date cooling degree days 123  
Since 1 June cooling degree days 80  
Growing Degree Days 15 (Base 50)    
Moisture  
Dew Point 55 °F    
Average Humidity 70    
Maximum Humidity 87    
Minimum Humidity 53    
Precipitation  
Precipitation 0.00 in 0.00 in 0.17 in (1975)
Month to date precipitation 0.00 0.01  
Year to date precipitation 5.51 9.64  
Since 1 July precipitation 0.00  
Sea Level Pressure  
Sea Level Pressure 29.90 in    
Wind  
Wind Speed 7 mph (NNE)    
Max Wind Speed 17 mph    
Max Gust Speed 22 mph    
Visibility 10 miles    
Events      
T = Trace of Precipitation, MM = Missing Value Source: NWS Daily Summary

Daily Weather History Graph

Daily Weather History Graph

Search for Another Location

Airport or City:

Trip Planner

Search our weather history database for the weather conditions in past years. The results will help you decide how hot, cold, wet, or windy it might be!

Date:

Astronomy

Jul. 15, 2012 Rise Set
Actual Time 5:59 AM PDT 8:28 PM PDT
Civil Twilight 5:29 AM PDT 8:58 PM PDT
Nautical Twilight 4:52 AM PDT 9:35 PM PDT
Astronomical Twilight 4:10 AM PDT 10:17 PM PDT
Moon 3:00 AM PDT (7/15) 5:49 PM PDT (7/15)
Length of Visible Light 15h 29m
Length of Day
14h 28m
Waning Crescent, 11% of the Moon is Illuminated
Jul 15
Waning Crescent
Jul 18
New
Jul 26
First Quarter
Aug 1
Full
Aug 9
Last Quarter

Hourly Weather History & Observations

Time (PDT) Temp. Dew Point Humidity Pressure Visibility Wind Dir Wind Speed Gust Speed Precip Events Conditions
12:56 AM 59.0 °F 54.0 °F 83% 29.94 in 10.0 mi NNE 4.6 mph - N/A   Overcast
1:56 AM 59.0 °F 55.0 °F 87% 29.93 in 10.0 mi NNE 3.5 mph - N/A   Overcast
2:56 AM 59.0 °F 54.0 °F 83% 29.92 in 10.0 mi Calm Calm - N/A   Overcast
3:56 AM 59.0 °F 52.0 °F 78% 29.92 in 10.0 mi East 4.6 mph - N/A   Overcast
4:56 AM 57.0 °F 51.1 °F 81% 29.92 in 10.0 mi SE 5.8 mph - N/A   Overcast
5:56 AM 57.0 °F 51.1 °F 81% 29.93 in 10.0 mi SE 5.8 mph - N/A   Overcast
6:56 AM 57.0 °F 52.0 °F 83% 29.93 in 10.0 mi SE 8.1 mph - N/A   Overcast
7:56 AM 57.9 °F 51.1 °F 78% 29.93 in 10.0 mi ESE 5.8 mph - N/A   Overcast
8:22 AM 59.0 °F 51.8 °F 77% 29.93 in 10.0 mi Calm Calm - N/A   Scattered Clouds
8:56 AM 60.1 °F 52.0 °F 75% 29.94 in 10.0 mi East 3.5 mph - N/A   Clear
9:56 AM 64.9 °F 52.0 °F 63% 29.93 in 10.0 mi ESE 4.6 mph - N/A   Clear
10:56 AM 70.0 °F 53.1 °F 55% 29.92 in 10.0 mi Calm Calm - N/A   Clear
11:56 AM 71.1 °F 54.0 °F 55% 29.91 in 10.0 mi North 8.1 mph - N/A   Clear
12:56 PM 73.0 °F 55.9 °F 55% 29.90 in 10.0 mi NNW 11.5 mph - N/A   Clear
1:56 PM 73.9 °F 57.0 °F 55% 29.88 in 10.0 mi NNW 10.4 mph - N/A   Clear
2:56 PM 73.0 °F 57.0 °F 57% 29.88 in 10.0 mi NNW 15.0 mph - N/A   Clear
3:56 PM 73.0 °F 57.9 °F 59% 29.87 in 10.0 mi NNW 11.5 mph 20.7 mph N/A   Clear
4:56 PM 71.1 °F 57.9 °F 63% 29.86 in 10.0 mi NNW 15.0 mph 21.9 mph N/A   Clear
5:56 PM 68.0 °F 57.0 °F 68% 29.86 in 10.0 mi NW 11.5 mph - N/A   Clear
6:56 PM 68.0 °F 57.0 °F 68% 29.86 in 10.0 mi NNW 11.5 mph - N/A   Clear
7:56 PM 64.9 °F 57.0 °F 75% 29.86 in 10.0 mi NNW 11.5 mph - N/A   Clear
8:56 PM 64.0 °F 57.9 °F 80% 29.86 in 10.0 mi NNW 8.1 mph - N/A   Clear
9:56 PM 61.0 °F 55.9 °F 83% 29.88 in 10.0 mi North 6.9 mph - N/A   Clear
10:56 PM 60.1 °F 55.9 °F 86% 29.88 in 10.0 mi North 3.5 mph - N/A   Clear
11:56 PM 60.1 °F 55.9 °F 86% 29.88 in 10.0 mi North 3.5 mph - N/A   Clear